Regional Weather Roundup
Issued by NWS

Home | Current Version | Previous Version | Text Only | Print | Product List | Glossary On
Versions: 1 2 3 4 5 6 7 8 9 10 11 12 13 14 15 16 17 18 19 20 21 22 23 24 25 26 27 28 29 30 31 32 33 34 35 36 37 38 39 40 41 42 43 44 45 46 47 48 49 50
000
ASUS45 KSLC 292010
RWRUT

UTAH REGIONAL WEATHER ROUNDUP
NATIONAL WEATHER SERVICE SALT LAKE CITY UT
200 PM MDT FRI APR 29 2016

UTZ001>011-023>025-292100-

NORTHERN UTAH

CITY           SKY/WX    TMP DP  RH WIND       PRES   REMARKS
BRIGHAM CITY   CLOUDY    51  32  47 SW3       29.88F
HILL AFB       PTSUNNY   50  35  56 VRB1      29.88F
LOGAN          CLOUDY    50  34  54 W7        29.87F
OGDEN          CLOUDY    51  35  54 MISG      29.87F
PROVO AIRPORT  MOSUNNY   52  39  62 SW8       29.88F
SALT LAKE CITY PTSUNNY   56  34  43 NW8       29.87F
VERNAL         SUNNY     51  36  56 VRB6      29.83F
WENDOVER       CLOUDY    54  37  54 W7        29.88F
HEBER CITY     DRIZZLE   45  34  65 NW5       29.87F

$$

UTZ012>022-026-027-292100-

SOUTHERN/CENTRAL UTAH

CITY           SKY/WX    TMP DP  RH WIND       PRES   REMARKS
BLANDING       PTSUNNY   50  36  58 W9        29.92F
BRYCE CANYON   PTSUNNY   47  31  53 NW18G26   29.93S
CEDAR CITY     PTSUNNY   50  39  66 E13       29.92R
DELTA          CLOUDY    54  34  47 NW12G23   29.89S
HANKSVILLE     PTSUNNY   57  36  44 W8        29.83
MILFORD        MOSUNNY   59  33  37 NW16G22   29.88F
MOAB/CYNLANDS  MOSUNNY   55  42  61 SE8       29.80F
PRICE          MOSUNNY   53  32  44 NW14G20   29.81F
ST GEORGE      MOCLDY    68  39  34 SW10G20   29.86F
KANAB          MOSUNNY   57  34  41 W3        29.90

$$

REGIONAL REPORTS     COLORADO/ARIZONA

CITY           SKY/WX    TMP DP  RH WIND       PRES   REMARKS
CRAIG, CO      LGT RAIN  43  36  76 NW14      29.83S
GRAND JUNCTION CLOUDY    55  37  50 NW9       29.79F
RIFLE          CLOUDY    53  32  44 NW8       29.78F
MONTROSE       CLOUDY    51  33  50 SE7       29.82F
CORTEZ         CLOUDY    54  30  40 W18G24    29.83F
PAGE, AZ       MOSUNNY   61  35  37 N7        29.83F
GRAND CANYON   CLOUDY    50  33  52 W8G16     29.94F
KINGMAN        PTSUNNY   63  41  44 W6        29.92F
FLAGSTAFF      LGT RAIN  43  38  82 SW12G30   29.96S

$$

REGIONAL REPORTS    NEVADA/IDAHO/WYOMING

CITY           SKY/WX    TMP DP  RH WIND       PRES   REMARKS
LAS VEGAS, NV  PTSUNNY   71  40  32 VRB6      29.83F
ELY            CLOUDY    45  37  73 E10       29.94F
ELKO           CLOUDY    47  40  76 SE6       29.91F
POCATELLO, ID  CLOUDY    51  41  68 N8        29.87F
BURLEY         PTSUNNY   55  37  50 VRB7      29.84F
EVANSTON, WY   CLOUDY    37  27  67 SW6       29.90F WCI  32
ROCK SPRINGS   CLOUDY    39  31  72 E13       29.90S WCI  31
KEMMERER       CLOUDY    34  30  86 S6        29.91F WCI  29

$$



USA.gov is the U.S. government's official web portal to all federal, state and local government web resources and services.